When you browse on this site, cookies collect data to enhance your experience and personalize the content and advertising you see.
Visit our Privacy Policy to learn more. By continuing to use the site, you agree to this use of cookies and data.
  • In Österreich
  • Länderverzeichnis
  • Für 7 Tage
  • Wassertemperatur
  • Wetterkarte
  • News
  • Widgets
  • user-avatar
    Anmelden

    Stündliche Wetter Silvania

    Heute, 17 Januar, Freitag

    Zeit Temperatur Niederschläge Wind Luftdruck Luftfeuchtigkeit
    00:00 +20°C° 0 mm 2 m/S 636 mmHg 71%
    01:00 +20°C° 0 mm 2 m/S 635 mmHg 75%
    02:00 +19°C° 0.2 mm 2 m/S 635 mmHg 76%
    03:00 +19°C° 0.2 mm 2 m/S 635 mmHg 77%
    04:00 +19°C° 0.2 mm 2 m/S 634 mmHg 79%
    05:00 +19°C° 0 mm 2 m/S 635 mmHg 78%
    06:00 +19°C° 0 mm 2 m/S 635 mmHg 78%
    07:00 +20°C° 0 mm 2 m/S 636 mmHg 76%
    08:00 +21°C° 0.1 mm 2 m/S 637 mmHg 74%
    09:00 +23°C° 0.1 mm 1 m/S 637 mmHg 71%
    10:00 +24°C° 0.1 mm 1 m/S 638 mmHg 68%
    11:00 +25°C° 0.2 mm 1 m/S 637 mmHg 65%
    12:00 +26°C° 0.2 mm 2 m/S 637 mmHg 62%
    13:00 +27°C° 0.2 mm 2 m/S 637 mmHg 59%
    14:00 +27°C° 0.1 mm 2 m/S 636 mmHg 59%
    15:00 +27°C° 0.1 mm 2 m/S 635 mmHg 59%
    16:00 +27°C° 0.1 mm 1 m/S 635 mmHg 59%
    17:00 +25°C° 0 mm 2 m/S 635 mmHg 64%
    18:00 +24°C° 0 mm 2 m/S 635 mmHg 70%
    19:00 +21°C° 0 mm 2 m/S 635 mmHg 76%
    20:00 +21°C° 0 mm 2 m/S 635 mmHg 74%
    21:00 +21°C° 0 mm 2 m/S 636 mmHg 72%
    22:00 +21°C° 0 mm 2 m/S 637 mmHg 71%
    23:00 +21°C° 0 mm 2 m/S 636 mmHg 70%

    Morgen, 18 Januar, Samstag

    Zeit Temperatur Niederschläge Wind Luftdruck Luftfeuchtigkeit
    00:00 +22°C° 0 mm 1 m/S 636 mmHg 70%
    01:00 +22°C° 0 mm 1 m/S 636 mmHg 69%
    02:00 +22°C° 0.1 mm 1 m/S 636 mmHg 71%
    03:00 +21°C° 0.1 mm 1 m/S 635 mmHg 73%
    04:00 +21°C° 0.1 mm 1 m/S 635 mmHg 75%
    05:00 +21°C° 0 mm 1 m/S 635 mmHg 76%
    06:00 +21°C° 0 mm 1 m/S 635 mmHg 77%
    07:00 +21°C° 0 mm 1 m/S 636 mmHg 78%
    08:00 +22°C° 0 mm 1 m/S 636 mmHg 74%
    09:00 +24°C° 0 mm 1 m/S 637 mmHg 70%
    10:00 +25°C° 0 mm 1 m/S 638 mmHg 66%
    11:00 +26°C° 0.1 mm 1 m/S 637 mmHg 63%
    12:00 +27°C° 0.1 mm 1 m/S 637 mmHg 61%
    13:00 +27°C° 0.1 mm 1 m/S 636 mmHg 59%
    14:00 +27°C° 0.1 mm 1 m/S 635 mmHg 60%
    15:00 +27°C° 0.1 mm 1 m/S 635 mmHg 61%
    16:00 +27°C° 0.1 mm 1 m/S 634 mmHg 63%
    17:00 +25°C° 0.1 mm 1 m/S 634 mmHg 68%
    18:00 +24°C° 0.1 mm 1 m/S 634 mmHg 73%
    19:00 +21°C° 0.1 mm 2 m/S 634 mmHg 78%
    20:00 +21°C° 0.1 mm 2 m/S 634 mmHg 78%
    21:00 +20°C° 0.1 mm 2 m/S 635 mmHg 77%
    22:00 +20°C° 0.1 mm 2 m/S 636 mmHg 77%
    23:00 +20°C° 0 mm 2 m/S 635 mmHg 76%

    übermorgen, 19 Januar, Sonntag

    Zeit Temperatur Niederschläge Wind Luftdruck Luftfeuchtigkeit
    00:00 +20°C° 0 mm 2 m/S 635 mmHg 75%
    01:00 +21°C° 0 mm 1 m/S 635 mmHg 74%
    02:00 +21°C° 0 mm 1 m/S 635 mmHg 75%
    03:00 +21°C° 0 mm 1 m/S 635 mmHg 76%
    04:00 +21°C° 0 mm 1 m/S 635 mmHg 76%
    05:00 +21°C° 0 mm 1 m/S 635 mmHg 77%
    06:00 +21°C° 0 mm 1 m/S 635 mmHg 77%
    07:00 +21°C° 0 mm 1 m/S 635 mmHg 78%
    08:00 +22°C° 0 mm 1 m/S 636 mmHg 74%
    09:00 +24°C° 0 mm 1 m/S 637 mmHg 70%
    10:00 +25°C° 0 mm 1 m/S 637 mmHg 67%
    11:00 +26°C° 0.2 mm 1 m/S 637 mmHg 64%
    12:00 +27°C° 0.2 mm 1 m/S 636 mmHg 62%
    13:00 +28°C° 0.2 mm 1 m/S 636 mmHg 59%
    14:00 +28°C° 0.2 mm 1 m/S 635 mmHg 59%
    15:00 +28°C° 0.2 mm 1 m/S 634 mmHg 60%
    16:00 +28°C° 0.2 mm 1 m/S 634 mmHg 60%
    17:00 +26°C° 0.1 mm 1 m/S 634 mmHg 66%
    18:00 +24°C° 0.1 mm 1 m/S 634 mmHg 71%
    19:00 +23°C° 0.1 mm 2 m/S 634 mmHg 77%
    20:00 +21°C° 0.2 mm 2 m/S 634 mmHg 77%
    21:00 +21°C° 0.2 mm 2 m/S 635 mmHg 78%
    22:00 +20°C° 0.2 mm 2 m/S 635 mmHg 78%
    23:00 +20°C° 0.8 mm 2 m/S 635 mmHg 80%

    20 Januar, Montag

    Zeit Temperatur Niederschläge Wind Luftdruck Luftfeuchtigkeit
    00:00 +20°C° 0.8 mm 2 m/S 635 mmHg 81%
    01:00 +20°C° 0.8 mm 1 m/S 635 mmHg 83%
    02:00 +20°C° 0.6 mm 1 m/S 634 mmHg 83%
    03:00 +20°C° 0.6 mm 1 m/S 634 mmHg 84%
    04:00 +19°C° 0.6 mm 1 m/S 634 mmHg 85%
    05:00 +20°C° 0.4 mm 1 m/S 634 mmHg 84%
    06:00 +20°C° 0.4 mm 1 m/S 635 mmHg 84%
    07:00 +20°C° 0.4 mm 1 m/S 635 mmHg 84%
    08:00 +22°C° 0.4 mm 1 m/S 636 mmHg 81%
    09:00 +23°C° 0.4 mm 1 m/S 637 mmHg 77%
    10:00 +25°C° 0.4 mm 1 m/S 637 mmHg 73%
    11:00 +25°C° 1 mm 1 m/S 637 mmHg 73%
    12:00 +25°C° 1 mm 1 m/S 636 mmHg 74%
    13:00 +26°C° 1 mm 1 m/S 635 mmHg 74%
    14:00 +25°C° 1.1 mm 1 m/S 635 mmHg 75%
    15:00 +25°C° 1.1 mm 1 m/S 634 mmHg 76%
    16:00 +25°C° 1.1 mm 1 m/S 634 mmHg 78%
    17:00 +24°C° 1 mm 1 m/S 634 mmHg 80%
    18:00 +23°C° 1 mm 1 m/S 634 mmHg 82%
    19:00 +22°C° 1 mm 1 m/S 634 mmHg 85%
    20:00 +22°C° 0.4 mm 1 m/S 635 mmHg 84%
    21:00 +22°C° 0.4 mm 1 m/S 635 mmHg 84%
    22:00 +21°C° 0.4 mm 1 m/S 636 mmHg 83%
    23:00 +21°C° 0.5 mm 1 m/S 635 mmHg 83%

    21 Januar, Dienstag

    Zeit Temperatur Niederschläge Wind Luftdruck Luftfeuchtigkeit
    00:00 +21°C° 0.5 mm 1 m/S 635 mmHg 84%
    01:00 +21°C° 0.5 mm 1 m/S 635 mmHg 84%
    02:00 +21°C° 0.8 mm 1 m/S 634 mmHg 86%
    03:00 +18°C° 0.8 mm 0 m/S 634 mmHg 88%
    04:00 +18°C° 0.8 mm 0 m/S 634 mmHg 90%
    05:00 +18°C° 0.5 mm 0 m/S 634 mmHg 89%
    06:00 +18°C° 0.5 mm 0 m/S 635 mmHg 89%
    07:00 +18°C° 0.5 mm 0 m/S 635 mmHg 89%
    08:00 +19°C° 0.8 mm 0 m/S 635 mmHg 90%
    09:00 +19°C° 0.8 mm 0 m/S 636 mmHg 90%
    10:00 +21°C° 0.8 mm 1 m/S 636 mmHg 91%
    11:00 +21°C° 2 mm 1 m/S 636 mmHg 93%
    12:00 +21°C° 2 mm 1 m/S 635 mmHg 95%
    13:00 +20°C° 2 mm 1 m/S 634 mmHg 97%
    14:00 +21°C° 1.4 mm 1 m/S 634 mmHg 94%
    15:00 +21°C° 1.4 mm 1 m/S 634 mmHg 92%
    16:00 +19°C° 1.4 mm 0 m/S 633 mmHg 90%
    17:00 +19°C° 0.2 mm 0 m/S 634 mmHg 91%
    18:00 +18°C° 0.2 mm 0 m/S 634 mmHg 93%
    19:00 +18°C° 0.2 mm 0 m/S 634 mmHg 94%
    20:00 +18°C° 0 mm 0 m/S 635 mmHg 93%
    21:00 +18°C° 0 mm 0 m/S 635 mmHg 93%
    22:00 +17°C° 0 mm 0 m/S 636 mmHg 92%
    23:00 +17°C° 0 mm 0 m/S 635 mmHg 92%

    22 Januar, Mittwoch

    Zeit Temperatur Niederschläge Wind Luftdruck Luftfeuchtigkeit
    00:00 +17°C° 0 mm 0 m/S 635 mmHg 93%
    01:00 +17°C° 0 mm 0 m/S 635 mmHg 93%
    02:00 +17°C° 0 mm 0 m/S 635 mmHg 94%
    03:00 +17°C° 0 mm 0 m/S 634 mmHg 94%
    04:00 +17°C° 0 mm 0 m/S 634 mmHg 95%
    05:00 +17°C° 0 mm 0 m/S 634 mmHg 94%
    06:00 +17°C° 0 mm 0 m/S 635 mmHg 93%
    07:00 +18°C° 0 mm 0 m/S 635 mmHg 92%
    08:00 +18°C° 0.1 mm 0 m/S 636 mmHg 89%
    09:00 +21°C° 0.1 mm 1 m/S 636 mmHg 87%
    10:00 +22°C° 0.1 mm 1 m/S 637 mmHg 85%
    11:00 +23°C° 0.3 mm 1 m/S 636 mmHg 82%
    12:00 +24°C° 0.3 mm 2 m/S 636 mmHg 79%
    13:00 +24°C° 0.3 mm 2 m/S 635 mmHg 76%
    14:00 +24°C° 0.6 mm 2 m/S 635 mmHg 77%
    15:00 +24°C° 0.6 mm 1 m/S 634 mmHg 78%
    16:00 +24°C° 0.6 mm 1 m/S 633 mmHg 79%
    17:00 +23°C° 0.8 mm 1 m/S 634 mmHg 81%
    18:00 +22°C° 0.8 mm 1 m/S 634 mmHg 83%
    19:00 +19°C° 0.8 mm 0 m/S 634 mmHg 85%
    20:00 +19°C° 0.2 mm 0 m/S 634 mmHg 85%
    21:00 +18°C° 0.2 mm 0 m/S 635 mmHg 85%
    22:00 +18°C° 0.2 mm 0 m/S 635 mmHg 84%
    23:00 +17°C° 0.2 mm 0 m/S 635 mmHg 86%
    Mehr zeigen